Regional Weather Roundup
Issued by NWS

Home | Current Version | Previous Version | Graphics & Text | Print | Product List | Glossary On
Versions: 1 2 3 4 5 6 7 8 9 10 11 12 13 14 15 16 17 18 19 20 21 22 23 24 25 26 27 28 29 30 31 32 33 34 35 36 37 38 39 40 41 42 43 44 45 46 47 48 49 50
000
ASUS43 KLSX 212207
RWRMO

WEATHER SUMMARY FOR MISSOURI
NATIONAL WEATHER SERVICE SPRINGFIELD MO
500 PM CDT MON JUL 21 2014

NOTE: "FAIR" INDICATES FEW OR NO CLOUDS BELOW 12,000 FEET WITH NO
       SIGNIFICANT WEATHER AND/OR OBSTRUCTIONS TO VISIBILITY.
       CURRENT SKY AND/OR WEATHER CONDITIONS ARE NOT AVAILABLE FOR
       CHILLICOTHE AND FARMINGTON.

MOZ001>031-035>038-043-044-053-054-212300-
...NORTHERN AND WESTERN MISSOURI...

CITY           SKY/WX    TMP DP  RH WIND       PRES   REMARKS
KANSAS CTY INT PTSUNNY   90  74  59 S14       29.95F HX  99
KANSAS C DTWN  MOSUNNY   94  74  52 S18       29.94F HX 104
LEE`S SUMMIT   SUNNY     90  74  59 S14G21    29.98F HX  99
ST JOSEPH      MOSUNNY   90  76  63 S14       29.92F HX 101
CHILLICOTHE      N/A     91  76  61 S9G20     29.96F HX 103
KIRKSVILLE     SUNNY     87  74  64 S13G22    30.00F HX  95

$$
MOZ066>068-077>081-088>096-101>105-212300-
...SOUTHWEST MISSOURI...

CITY           SKY/WX    TMP DP  RH WIND       PRES   REMARKS
SPRINGFIELD    SUNNY     87  66  49 SW5       30.05F
JOPLIN         SUNNY     93  71  48 S10       30.02F HX 100

$$
MOZ032>034-039>042-045>050-055>058-069>072-212300-
...CENTRAL MISSOURI...

CITY           SKY/WX    TMP DP  RH WIND       PRES   REMARKS
COLUMBIA       SUNNY     88  68  51 S8        30.02F HX  91
JEFFERSON CITY SUNNY     88  66  48 S6        30.00F HX  90
ROLLA          SUNNY     87  64  46 S6        30.04F
SEDALIA        MOSUNNY   90  74  59 SW12      30.02S HX  99
WHITEMAN AFB   SUNNY     89  71  55 SW14      29.99F HX  96
OSAGE BEACH    SUNNY     90  68  48 S8        30.02F HX  93

$$
MOZ051-052-059>065-212300-
...EAST CENTRAL MISSOURI...

CITY           SKY/WX    TMP DP  RH WIND       PRES   REMARKS
ST LOUIS INTL  SUNNY     89  65  44 SW6       30.04F HX  91
SPIRIT OF STL  SUNNY     87  63  44 SE3       30.03S
ST CHARLES     SUNNY     87  65  47 SE6       30.03S

$$
MOZ072>076-082>087-097>100-106>115-212300-
...SOUTH CENTRAL AND SOUTHEAST MISSOURI...

CITY           SKY/WX    TMP DP  RH WIND       PRES   REMARKS
CAPE GIRARDEAU SUNNY     85  64  49 CALM      30.05F
FARMINGTON     SUNNY     84  64  51 S6        30.09S
POPLAR BLUFF   SUNNY     85  62  46 CALM      30.04F
WEST PLAINS    SUNNY     82  65  56 SW6       30.09S

$$



USA.gov is the U.S. government's official web portal to all federal, state and local government web resources and services.